| time (UTC) | temp F | wind direction | speed MPH | gust MPH | rain 1hr in | rain 24hr in | rain mn in | humidity % | barometer mb |
| 20260903075726 | 73 | 186 | 11.0 | 19.0 | 0.00 | 0.00 | 0.00 | 63 | 1013.2 |
| 20260903075008 | 74 | 187 | 12.0 | 19.0 | 0.00 | 0.00 | 0.00 | 63 | 1013.2 |
| 20260903074704 | 74 | 188 | 12.0 | 19.0 | 0.00 | 0.00 | 0.00 | 63 | 1013.2 |
| 20260903074407 | 74 | 190 | 12.0 | 19.0 | 0.00 | 0.00 | 0.00 | 63 | 1013.3 |
| 20260903074100 | 74 | 186 | 11.0 | 18.0 | 0.00 | 0.00 | 0.00 | 63 | 1013.3 |
| 20260903073803 | 74 | 184 | 10.0 | 18.0 | 0.00 | 0.00 | 0.00 | 63 | 1013.3 |
| 20260903073452 | 74 | 185 | 10.0 | 18.0 | 0.00 | 0.00 | 0.00 | 63 | 1013.4 |
| 20260903072735 | 74 | 184 | 10.0 | 15.0 | 0.00 | 0.00 | 0.00 | 63 | 1013.3 |
| 20260903072431 | 74 | 184 | 10.0 | 15.0 | 0.00 | 0.00 | 0.00 | 63 | 1013.3 |
| 20260903072129 | 74 | 185 | 10.0 | 17.0 | 0.00 | 0.00 | 0.00 | 63 | 1013.3 |
| 20260903071824 | 74 | 188 | 10.0 | 17.0 | 0.00 | 0.00 | 0.00 | 63 | 1013.3 |
| 20260903071101 | 74 | 186 | 10.0 | 17.0 | 0.00 | 0.00 | 0.00 | 63 | 1013.3 |
| 20260903070751 | 74 | 185 | 10.0 | 17.0 | 0.00 | 0.00 | 0.00 | 63 | 1013.3 |
| 20260903070024 | 74 | 187 | 9.0 | 13.0 | 0.00 | 0.00 | 0.00 | 63 | 1013.3 |
| 20260903065721 | 74 | 188 | 9.0 | 13.0 | 0.00 | 0.00 | 0.00 | 63 | 1013.4 |
| 20260903065418 | 74 | 188 | 9.0 | 13.0 | 0.00 | 0.00 | 0.00 | 63 | 1013.4 |
| 20260903065113 | 74 | 188 | 9.0 | 13.0 | 0.00 | 0.00 | 0.00 | 63 | 1013.4 |
| 20260903064800 | 74 | 188 | 9.0 | 13.0 | 0.00 | 0.00 | 0.00 | 62 | 1013.5 |
| 20260903064458 | 74 | 189 | 8.0 | 13.0 | 0.00 | 0.00 | 0.00 | 62 | 1013.5 |
| 20260903064148 | 74 | 190 | 9.0 | 13.0 | 0.00 | 0.00 | 0.00 | 62 | 1013.5 |
| 20260903063849 | 74 | 192 | 9.0 | 13.0 | 0.00 | 0.00 | 0.00 | 62 | 1013.5 |
| 20260903063120 | 74 | 193 | 8.0 | 11.0 | 0.00 | 0.00 | 0.00 | 61 | 1013.6 |
| 20260903062820 | 74 | 193 | 8.0 | 12.0 | 0.00 | 0.00 | 0.00 | 61 | 1013.5 |
| 20260903062506 | 74 | 194 | 8.0 | 12.0 | 0.00 | 0.00 | 0.00 | 61 | 1013.5 |
| 20260903062201 | 75 | 194 | 8.0 | 12.0 | 0.00 | 0.00 | 0.00 | 60 | 1013.6 |
| 20260903061852 | 75 | 194 | 9.0 | 12.0 | 0.00 | 0.00 | 0.00 | 60 | 1013.5 |
| 20260903061550 | 75 | 196 | 9.0 | 12.0 | 0.00 | 0.00 | 0.00 | 60 | 1013.6 |
| 20260903061252 | 75 | 196 | 9.0 | 12.0 | 0.00 | 0.00 | 0.00 | 60 | 1013.6 |
| 20260903060956 | 75 | 196 | 9.0 | 13.0 | 0.00 | 0.00 | 0.00 | 59 | 1013.7 |
| 20260903060650 | 75 | 197 | 9.0 | 13.0 | 0.00 | 0.00 | 0.00 | 59 | 1013.6 |
| 20260903060351 | 75 | 198 | 9.0 | 13.0 | 0.00 | 0.00 | 0.00 | 59 | 1013.6 |
| 20260903060039 | 76 | 198 | 9.0 | 13.0 | 0.00 | 0.00 | 0.00 | 59 | 1013.6 |
| 20260903055728 | 76 | 197 | 9.0 | 13.0 | 0.00 | 0.00 | 0.00 | 59 | 1013.5 |
| 20260903055009 | 76 | 198 | 10.0 | 13.0 | 0.00 | 0.00 | 0.00 | 58 | 1013.6 |
| 20260903054657 | 76 | 198 | 10.0 | 13.0 | 0.00 | 0.00 | 0.00 | 58 | 1013.6 |
| 20260903054350 | 76 | 198 | 10.0 | 13.0 | 0.00 | 0.00 | 0.00 | 58 | 1013.6 |
| 20260903054050 | 76 | 198 | 9.0 | 13.0 | 0.00 | 0.00 | 0.00 | 57 | 1013.7 |
| 20260903053742 | 77 | 198 | 9.0 | 12.0 | 0.00 | 0.00 | 0.00 | 57 | 1013.6 |
| 20260903053020 | 77 | 198 | 9.0 | 12.0 | 0.00 | 0.00 | 0.00 | 57 | 1013.6 |
| 20260903052713 | 77 | 198 | 9.0 | 12.0 | 0.00 | 0.00 | 0.00 | 56 | 1013.6 |
| 20260903052405 | 78 | 198 | 9.0 | 12.0 | 0.00 | 0.00 | 0.00 | 56 | 1013.7 |
| 20260903052053 | 78 | 198 | 10.0 | 17.0 | 0.00 | 0.00 | 0.00 | 56 | 1013.7 |
| 20260903051752 | 78 | 198 | 10.0 | 17.0 | 0.00 | 0.00 | 0.00 | 55 | 1013.9 |
| 20260903051447 | 78 | 198 | 11.0 | 17.0 | 0.00 | 0.00 | 0.00 | 55 | 1013.8 |
| 20260903051136 | 78 | 198 | 12.0 | 17.0 | 0.00 | 0.00 | 0.00 | 55 | 1013.8 |
| 20260903050829 | 78 | 200 | 12.0 | 17.0 | 0.00 | 0.00 | 0.00 | 55 | 1013.8 |
| 20260903050520 | 78 | 200 | 11.0 | 17.0 | 0.00 | 0.00 | 0.00 | 55 | 1013.9 |
| 20260903050211 | 78 | 202 | 11.0 | 15.0 | 0.00 | 0.00 | 0.00 | 55 | 1013.7 |
| 20260903045908 | 78 | 202 | 10.0 | 15.0 | 0.00 | 0.00 | 0.00 | 56 | 1013.8 |
| 20260903045156 | 77 | 201 | 10.0 | 13.0 | 0.00 | 0.00 | 0.00 | 56 | 1013.8 |
| 20260903044842 | 77 | 201 | 11.0 | 15.0 | 0.00 | 0.00 | 0.00 | 56 | 1013.8 |
| 20260903044539 | 77 | 201 | 11.0 | 15.0 | 0.00 | 0.00 | 0.00 | 56 | 1013.9 |
| 20260903044237 | 77 | 201 | 10.0 | 15.0 | 0.00 | 0.00 | 0.00 | 56 | 1014.0 |
| 20260903043939 | 77 | 201 | 11.0 | 15.0 | 0.00 | 0.00 | 0.00 | 56 | 1013.9 |
| 20260903043630 | 77 | 201 | 11.0 | 15.0 | 0.00 | 0.00 | 0.00 | 57 | 1014.0 |
| 20260903043322 | 77 | 202 | 11.0 | 15.0 | 0.00 | 0.00 | 0.00 | 57 | 1014.0 |
| 20260903043011 | 76 | 201 | 11.0 | 14.0 | 0.00 | 0.00 | 0.00 | 57 | 1014.0 |
| 20260903041838 | 76 | 203 | 8.0 | 14.0 | 0.00 | 0.00 | 0.00 | 57 | 1014.1 |
| 20260903041540 | 76 | 204 | 7.0 | 11.0 | 0.00 | 0.00 | 0.00 | 57 | 1014.1 |
| 20260903041243 | 75 | 204 | 7.0 | 10.0 | 0.00 | 0.00 | 0.00 | 57 | 1014.1 |
| 20260903040521 | 75 | 204 | 7.0 | 10.0 | 0.00 | 0.00 | 0.00 | 57 | 1014.1 |
| 20260903040210 | 74 | 204 | 7.0 | 10.0 | 0.00 | 0.00 | 0.00 | 56 | 1014.1 |
| 20260903035909 | 74 | 204 | 6.0 | 9.0 | 0.00 | 0.00 | 0.00 | 56 | 1014.2 |
| 20260903035557 | 74 | 204 | 5.0 | 8.0 | 0.00 | 0.00 | 0.00 | 56 | 1014.1 |
| 20260903034830 | 74 | 204 | 4.0 | 6.0 | 0.00 | 0.00 | 0.00 | 54 | 1014.1 |
| 20260903034523 | 74 | 204 | 4.0 | 4.0 | 0.00 | 0.00 | 0.00 | 52 | 1014.1 |
| 20260903034222 | 74 | 204 | 4.0 | 4.0 | 0.00 | 0.00 | 0.00 | 51 | 1014.2 |
| 20260903033925 | 75 | 204 | 4.0 | 4.0 | 0.00 | 0.00 | 0.00 | 51 | 1014.2 |
| 20260903033617 | 75 | 204 | 4.0 | 4.0 | 0.00 | 0.00 | 0.00 | 50 | 1014.2 |
| 20260903033311 | 75 | 204 | 4.0 | 6.0 | 0.00 | 0.00 | 0.00 | 49 | 1014.3 |
| 20260903032536 | 76 | 204 | 4.0 | 6.0 | 0.00 | 0.00 | 0.00 | 48 | 1014.3 |
| 20260903031800 | 77 | 204 | 5.0 | 8.0 | 0.00 | 0.00 | 0.00 | 47 | 1014.2 |
| 20260903031457 | 78 | 204 | 6.0 | 8.0 | 0.00 | 0.00 | 0.00 | 46 | 1014.2 |
| 20260903030740 | 78 | 204 | 6.0 | 8.0 | 0.00 | 0.00 | 0.00 | 46 | 1014.2 |
| 20260903030429 | 78 | 204 | 5.0 | 7.0 | 0.00 | 0.00 | 0.00 | 45 | 1014.2 |
| 20260903025707 | 79 | 204 | 4.0 | 6.0 | 0.00 | 0.00 | 0.00 | 42 | 1014.2 |
| 20260903025409 | 79 | 204 | 5.0 | 6.0 | 0.00 | 0.00 | 0.00 | 41 | 1014.2 |
| 20260903025101 | 80 | 204 | 4.0 | 6.0 | 0.00 | 0.00 | 0.00 | 41 | 1014.2 |
| 20260903024804 | 80 | 204 | 5.0 | 6.0 | 0.00 | 0.00 | 0.00 | 40 | 1014.2 |
| 20260903024505 | 80 | 204 | 5.0 | 6.0 | 0.00 | 0.00 | 0.00 | 40 | 1014.2 |
| 20260903024209 | 81 | 204 | 6.0 | 14.0 | 0.00 | 0.00 | 0.00 | 39 | 1014.2 |
| 20260903023858 | 81 | 204 | 6.0 | 14.0 | 0.00 | 0.00 | 0.00 | 38 | 1014.2 |
| 20260903023136 | 81 | 204 | 8.0 | 14.0 | 0.00 | 0.00 | 0.00 | 37 | 1014.1 |
| 20260903022834 | 80 | 204 | 7.0 | 14.0 | 0.00 | 0.00 | 0.00 | 39 | 1014.1 |
| 20260903022119 | 78 | 225 | 5.0 | 8.0 | 0.00 | 0.00 | 0.00 | 39 | 1014.0 |
| 20260903021817 | 78 | 225 | 5.0 | 6.0 | 0.00 | 0.00 | 0.00 | 38 | 1013.8 |
| 20260903021515 | 79 | 225 | 5.0 | 6.0 | 0.00 | 0.00 | 0.00 | 38 | 1013.7 |
| 20260903021209 | 79 | 225 | 5.0 | 6.0 | 0.00 | 0.00 | 0.00 | 37 | 1013.6 |
| 20260903020859 | 79 | 225 | 4.0 | 6.0 | 0.00 | 0.00 | 0.00 | 37 | 1013.6 |
| 20260903020138 | 80 | 225 | 4.0 | 5.0 | 0.00 | 0.00 | 0.00 | 36 | 1013.6 |
| 20260903015830 | 80 | 225 | 4.0 | 5.0 | 0.00 | 0.00 | 0.00 | 35 | 1013.5 |
| 20260903015521 | 81 | 225 | 4.0 | 5.0 | 0.00 | 0.00 | 0.00 | 35 | 1013.5 |
| 20260903015218 | 81 | 225 | 4.0 | 5.0 | 0.00 | 0.00 | 0.00 | 34 | 1013.5 |
| 20260903014913 | 81 | 225 | 4.0 | 5.0 | 0.00 | 0.00 | 0.00 | 34 | 1013.4 |
| 20260903014146 | 82 | 225 | 3.0 | 5.0 | 0.00 | 0.00 | 0.00 | 33 | 1013.4 |
| 20260903013838 | 83 | 225 | 4.0 | 5.0 | 0.00 | 0.00 | 0.00 | 33 | 1013.3 |
| 20260903013106 | 85 | 225 | 2.0 | 5.0 | 0.00 | 0.00 | 0.00 | 31 | 1013.3 |
| 20260903012754 | 86 | 225 | 1.0 | 4.0 | 0.00 | 0.00 | 0.00 | 29 | 1013.3 |
| 20260903012019 | 87 | 225 | 0.0 | 2.0 | 0.00 | 0.00 | 0.00 | 28 | 1013.2 |
| 20260903011717 | 87 | 225 | 0.0 | 2.0 | 0.00 | 0.00 | 0.00 | 28 | 1013.2 |
| 20260903011409 | 88 | 225 | 0.0 | 1.0 | 0.00 | 0.00 | 0.00 | 27 | 1013.2 |
| 20260903011110 | 89 | 225 | 0.0 | 0.0 | 0.00 | 0.00 | 0.00 | 27 | 1013.2 |
| 20260903010756 | 89 | 225 | 0.0 | 0.0 | 0.00 | 0.00 | 0.00 | 26 | 1013.2 |
| 20260903010459 | 90 | 225 | 1.0 | 0.0 | 0.00 | 0.00 | 0.00 | 26 | 1013.1 |
| 20260903004848 | 92 | 225 | 2.0 | 5.0 | 0.00 | 0.00 | 0.00 | 23 | 1013.3 |
| 20260903004537 | 92 | 225 | 3.0 | 5.0 | 0.00 | 0.00 | 0.00 | 23 | 1013.3 |
| 20260903004241 | 93 | 225 | 4.0 | 8.0 | 0.00 | 0.00 | 0.00 | 22 | 1013.5 |
| 20260903003934 | 93 | 225 | 4.0 | 8.0 | 0.00 | 0.00 | 0.00 | 22 | 1013.4 |
| 20260903002749 | 94 | 225 | 5.0 | 13.0 | 0.00 | 0.00 | 0.00 | 20 | 1013.5 |
| 20260903002447 | 95 | 225 | 6.0 | 13.0 | 0.00 | 0.00 | 0.00 | 19 | 1013.5 |
| 20260903002137 | 95 | 225 | 7.0 | 13.0 | 0.00 | 0.00 | 0.00 | 19 | 1013.5 |
| 20260903001832 | 95 | 225 | 7.0 | 13.0 | 0.00 | 0.00 | 0.00 | 19 | 1013.6 |
| 20260903001522 | 95 | 225 | 7.0 | 13.0 | 0.00 | 0.00 | 0.00 | 18 | 1013.6 |
| 20260903001225 | 95 | 236 | 7.0 | 12.0 | 0.00 | 0.00 | 0.00 | 18 | 1013.6 |
| 20260903000921 | 95 | 238 | 7.0 | 12.0 | 0.00 | 0.00 | 0.00 | 18 | 1013.6 |
| 20260903000616 | 95 | 240 | 7.0 | 12.0 | 0.00 | 0.00 | 0.00 | 18 | 1013.5 |
| 20260903000318 | 96 | 240 | 7.0 | 11.0 | 0.00 | 0.00 | 0.00 | 18 | 1013.6 |
| 20260903000003 | 96 | 240 | 7.0 | 11.0 | 0.00 | 0.00 | 0.00 | 18 | 1013.5 |
| 20260902235701 | 96 | 238 | 7.0 | 14.0 | 0.00 | 0.00 | 0.00 | 17 | 1013.5 |
| 20260902234524 | 96 | 221 | 9.0 | 14.0 | 0.00 | 0.00 | 0.00 | 19 | 1013.4 |
| 20260902234226 | 97 | 212 | 10.0 | 14.0 | 0.00 | 0.00 | 0.00 | 19 | 1013.3 |
| 20260902233913 | 97 | 211 | 10.0 | 14.0 | 0.00 | 0.00 | 0.00 | 19 | 1013.4 |
| 20260902233141 | 97 | 230 | 9.0 | 15.0 | 0.00 | 0.00 | 0.00 | 19 | 1013.4 |
| 20260902232842 | 97 | 238 | 10.0 | 15.0 | 0.00 | 0.00 | 0.00 | 18 | 1013.4 |
| 20260902232126 | 97 | 218 | 11.0 | 19.0 | 0.00 | 0.00 | 0.00 | 19 | 1013.3 |
| 20260902231824 | 97 | 221 | 11.0 | 19.0 | 0.00 | 0.00 | 0.00 | 20 | 1013.5 |
| 20260902231519 | 97 | 211 | 11.0 | 24.0 | 0.00 | 0.00 | 0.00 | 20 | 1013.4 |
| 20260902231208 | 97 | 215 | 10.0 | 24.0 | 0.00 | 0.00 | 0.00 | 20 | 1013.3 |
| 20260902230446 | 97 | 252 | 13.0 | 24.0 | 0.00 | 0.00 | 0.00 | 19 | 1013.4 |
| 20260902230143 | 97 | 241 | 13.0 | 24.0 | 0.00 | 0.00 | 0.00 | 19 | 1013.4 |
| 20260902225830 | 97 | 226 | 13.0 | 24.0 | 0.00 | 0.00 | 0.00 | 19 | 1013.4 |
| 20260902225518 | 97 | 234 | 12.0 | 19.0 | 0.00 | 0.00 | 0.00 | 21 | 1013.4 |
| 20260902225217 | 97 | 235 | 12.0 | 19.0 | 0.00 | 0.00 | 0.00 | 22 | 1013.4 |
| 20260902224915 | 97 | 219 | 12.0 | 19.0 | 0.00 | 0.00 | 0.00 | 22 | 1013.5 |
| 20260902224614 | 98 | 243 | 11.0 | 19.0 | 0.00 | 0.00 | 0.00 | 21 | 1013.4 |
| 20260902224306 | 97 | 227 | 13.0 | 28.0 | 0.00 | 0.00 | 0.00 | 21 | 1013.5 |
| 20260902224000 | 97 | 227 | 14.0 | 28.0 | 0.00 | 0.00 | 0.00 | 20 | 1013.5 |
| 20260902223252 | 97 | 211 | 12.0 | 29.0 | 0.00 | 0.00 | 0.00 | 19 | 1013.5 |
| 20260902222947 | 97 | 221 | 11.0 | 29.0 | 0.00 | 0.00 | 0.00 | 21 | 1013.5 |
| 20260902222645 | 97 | 240 | 12.0 | 29.0 | 0.00 | 0.00 | 0.00 | 22 | 1013.5 |
| 20260902222330 | 97 | 232 | 13.0 | 29.0 | 0.00 | 0.00 | 0.00 | 21 | 1013.6 |
| 20260902222024 | 97 | 244 | 12.0 | 29.0 | 0.00 | 0.00 | 0.00 | 20 | 1013.5 |
| 20260902221715 | 97 | 236 | 12.0 | 29.0 | 0.00 | 0.00 | 0.00 | 20 | 1013.7 |
| 20260902221417 | 97 | 205 | 11.0 | 21.0 | 0.00 | 0.00 | 0.00 | 21 | 1013.6 |
| 20260902221106 | 97 | 228 | 11.0 | 21.0 | 0.00 | 0.00 | 0.00 | 20 | 1013.7 |
| 20260902215904 | 97 | 244 | 11.0 | 21.0 | 0.00 | 0.00 | 0.00 | 20 | 1013.7 |
| 20260902215603 | 98 | 254 | 11.0 | 18.0 | 0.00 | 0.00 | 0.00 | 19 | 1013.7 |
| 20260902215306 | 98 | 221 | 11.0 | 18.0 | 0.00 | 0.00 | 0.00 | 20 | 1013.7 |
| 20260902214531 | 98 | 234 | 11.0 | 17.0 | 0.00 | 0.00 | 0.00 | 20 | 1013.8 |
| 20260902214233 | 98 | 209 | 11.0 | 17.0 | 0.00 | 0.00 | 0.00 | 21 | 1013.7 |
| 20260902213919 | 98 | 249 | 11.0 | 23.0 | 0.00 | 0.00 | 0.00 | 20 | 1013.8 |
| 20260902213605 | 98 | 238 | 11.0 | 23.0 | 0.00 | 0.00 | 0.00 | 21 | 1013.9 |
| 20260902212420 | 98 | 223 | 14.0 | 23.0 | 0.00 | 0.00 | 0.00 | 20 | 1014.1 |
| 20260902212119 | 98 | 224 | 14.0 | 23.0 | 0.00 | 0.00 | 0.00 | 20 | 1014.1 |
| 20260902211824 | 98 | 238 | 13.0 | 21.0 | 0.00 | 0.00 | 0.00 | 20 | 1014.1 |
| 20260902211526 | 97 | 248 | 12.0 | 21.0 | 0.00 | 0.00 | 0.00 | 20 | 1014.2 |
| 20260902211216 | 98 | 241 | 12.0 | 21.0 | 0.00 | 0.00 | 0.00 | 21 | 1014.2 |
| 20260902210910 | 98 | 233 | 13.0 | 21.0 | 0.00 | 0.00 | 0.00 | 20 | 1014.3 |
| 20260902210148 | 98 | 216 | 14.0 | 24.0 | 0.00 | 0.00 | 0.00 | 20 | 1014.3 |
| 20260902205841 | 98 | 213 | 14.0 | 24.0 | 0.00 | 0.00 | 0.00 | 20 | 1014.3 |
| 20260902205542 | 97 | 215 | 15.0 | 24.0 | 0.00 | 0.00 | 0.00 | 20 | 1014.3 |
| 20260902203921 | 98 | 230 | 14.0 | 26.0 | 0.00 | 0.00 | 0.00 | 21 | 1014.5 |
| 20260902203154 | 98 | 223 | 15.0 | 26.0 | 0.00 | 0.00 | 0.00 | 22 | 1014.7 |
| 20260902202854 | 97 | 215 | 14.0 | 26.0 | 0.00 | 0.00 | 0.00 | 21 | 1014.7 |
| 20260902202556 | 98 | 222 | 13.0 | 22.0 | 0.00 | 0.00 | 0.00 | 21 | 1014.8 |
| 20260902202245 | 97 | 240 | 13.0 | 22.0 | 0.00 | 0.00 | 0.00 | 21 | 1014.7 |
| 20260902201935 | 98 | 221 | 12.0 | 22.0 | 0.00 | 0.00 | 0.00 | 20 | 1014.8 |
| 20260902201639 | 97 | 248 | 13.0 | 22.0 | 0.00 | 0.00 | 0.00 | 21 | 1014.8 |
| 20260902201332 | 97 | 248 | 13.0 | 22.0 | 0.00 | 0.00 | 0.00 | 24 | 1014.8 |
| 20260902201034 | 97 | 227 | 14.0 | 22.0 | 0.00 | 0.00 | 0.00 | 22 | 1015.0 |
| 20260902200727 | 97 | 229 | 13.0 | 22.0 | 0.00 | 0.00 | 0.00 | 22 | 1015.0 |
| 20260902200419 | 97 | 240 | 12.0 | 21.0 | 0.00 | 0.00 | 0.00 | 21 | 1015.0 |
| 20260902200121 | 98 | 223 | 12.0 | 21.0 | 0.00 | 0.00 | 0.00 | 22 | 1015.1 |
| 20260902195814 | 97 | 220 | 13.0 | 21.0 | 0.00 | 0.00 | 0.00 | 22 | 1015.0 |
| 20260902195511 | 97 | 220 | 13.0 | 21.0 | 0.00 | 0.00 | 0.00 | 23 | 1015.1 |
| 20260902195158 | 97 | 232 | 14.0 | 21.0 | 0.00 | 0.00 | 0.00 | 22 | 1015.0 |
| 20260902194853 | 97 | 204 | 13.0 | 21.0 | 0.00 | 0.00 | 0.00 | 22 | 1015.1 |
| 20260902194125 | 97 | 235 | 12.0 | 23.0 | 0.00 | 0.00 | 0.00 | 25 | 1015.1 |
| 20260902193814 | 97 | 252 | 12.0 | 23.0 | 0.00 | 0.00 | 0.00 | 23 | 1015.3 |
| 20260902193510 | 97 | 244 | 11.0 | 23.0 | 0.00 | 0.00 | 0.00 | 23 | 1015.3 |
| 20260902193157 | 96 | 231 | 13.0 | 23.0 | 0.00 | 0.00 | 0.00 | 25 | 1015.3 |
| 20260902192437 | 96 | 225 | 12.0 | 23.0 | 0.00 | 0.00 | 0.00 | 25 | 1015.4 |
| 20260902191719 | 96 | 253 | 11.0 | 19.0 | 0.00 | 0.00 | 0.00 | 26 | 1015.5 |
| 20260902191406 | 96 | 257 | 11.0 | 19.0 | 0.00 | 0.00 | 0.00 | 27 | 1015.6 |
| 20260902191055 | 96 | 244 | 11.0 | 20.0 | 0.00 | 0.00 | 0.00 | 27 | 1015.6 |
| 20260902190758 | 95 | 246 | 11.0 | 20.0 | 0.00 | 0.00 | 0.00 | 27 | 1015.6 |
| 20260902190446 | 95 | 241 | 11.0 | 20.0 | 0.00 | 0.00 | 0.00 | 27 | 1015.7 |
| 20260902190145 | 95 | 256 | 11.0 | 20.0 | 0.00 | 0.00 | 0.00 | 28 | 1015.6 |
| 20260902185841 | 96 | 234 | 11.0 | 20.0 | 0.00 | 0.00 | 0.00 | 28 | 1015.6 |
| 20260902185539 | 95 | 257 | 11.0 | 20.0 | 0.00 | 0.00 | 0.00 | 27 | 1015.7 |
| 20260902185237 | 96 | 243 | 11.0 | 20.0 | 0.00 | 0.00 | 0.00 | 28 | 1015.6 |
| 20260902184935 | 96 | 256 | 11.0 | 20.0 | 0.00 | 0.00 | 0.00 | 28 | 1015.8 |
| 20260902184630 | 95 | 238 | 11.0 | 20.0 | 0.00 | 0.00 | 0.00 | 27 | 1015.8 |
| 20260902184327 | 95 | 248 | 11.0 | 20.0 | 0.00 | 0.00 | 0.00 | 28 | 1015.9 |
| 20260902184020 | 95 | 235 | 10.0 | 19.0 | 0.00 | 0.00 | 0.00 | 29 | 1015.9 |
| 20260902183709 | 95 | 265 | 10.0 | 19.0 | 0.00 | 0.00 | 0.00 | 28 | 1015.9 |
| 20260902183356 | 95 | 231 | 11.0 | 19.0 | 0.00 | 0.00 | 0.00 | 27 | 1015.9 |
| 20260902183048 | 94 | 240 | 11.0 | 19.0 | 0.00 | 0.00 | 0.00 | 30 | 1016.0 |
| 20260902181913 | 94 | 264 | 10.0 | 18.0 | 0.00 | 0.00 | 0.00 | 29 | 1016.1 |
| 20260902181607 | 94 | 250 | 10.0 | 18.0 | 0.00 | 0.00 | 0.00 | 30 | 1016.1 |
| 20260902180829 | 93 | 221 | 10.0 | 18.0 | 0.00 | 0.00 | 0.00 | 33 | 1016.1 |
| 20260902180059 | 92 | 259 | 11.0 | 18.0 | 0.00 | 0.00 | 0.00 | 32 | 1016.1 |
| 20260902175749 | 93 | 257 | 11.0 | 18.0 | 0.00 | 0.00 | 0.00 | 34 | 1016.2 |
| 20260902175440 | 93 | 240 | 11.0 | 18.0 | 0.00 | 0.00 | 0.00 | 32 | 1016.2 |
| 20260902175141 | 92 | 261 | 11.0 | 18.0 | 0.00 | 0.00 | 0.00 | 33 | 1016.2 |
| 20260902174829 | 92 | 238 | 11.0 | 18.0 | 0.00 | 0.00 | 0.00 | 33 | 1016.3 |
| 20260902174523 | 92 | 241 | 11.0 | 19.0 | 0.00 | 0.00 | 0.00 | 34 | 1016.3 |
| 20260902174215 | 92 | 250 | 10.0 | 19.0 | 0.00 | 0.00 | 0.00 | 34 | 1016.3 |
| 20260902173907 | 92 | 219 | 10.0 | 19.0 | 0.00 | 0.00 | 0.00 | 36 | 1016.4 |
| 20260902173602 | 92 | 221 | 10.0 | 19.0 | 0.00 | 0.00 | 0.00 | 35 | 1016.3 |
| 20260902173254 | 91 | 235 | 11.0 | 19.0 | 0.00 | 0.00 | 0.00 | 37 | 1016.4 |
| 20260902172949 | 91 | 248 | 10.0 | 19.0 | 0.00 | 0.00 | 0.00 | 37 | 1016.5 |
| 20260902172228 | 90 | 234 | 9.0 | 17.0 | 0.00 | 0.00 | 0.00 | 39 | 1016.4 |
| 20260902171921 | 89 | 271 | 10.0 | 17.0 | 0.00 | 0.00 | 0.00 | 39 | 1016.5 |
| 20260902171612 | 89 | 251 | 10.0 | 17.0 | 0.00 | 0.00 | 0.00 | 39 | 1016.6 |
| 20260902171307 | 89 | 249 | 9.0 | 15.0 | 0.00 | 0.00 | 0.00 | 40 | 1016.6 |
| 20260902171002 | 89 | 237 | 9.0 | 15.0 | 0.00 | 0.00 | 0.00 | 39 | 1016.5 |
| 20260902170651 | 89 | 259 | 8.0 | 14.0 | 0.00 | 0.00 | 0.00 | 41 | 1016.5 |
| 20260902170337 | 88 | 262 | 8.0 | 14.0 | 0.00 | 0.00 | 0.00 | 40 | 1016.6 |
| 20260902170035 | 88 | 261 | 8.0 | 14.0 | 0.00 | 0.00 | 0.00 | 41 | 1016.7 |
| 20260902165729 | 88 | 262 | 9.0 | 14.0 | 0.00 | 0.00 | 0.00 | 41 | 1016.7 |
| 20260902165417 | 87 | 264 | 9.0 | 15.0 | 0.00 | 0.00 | 0.00 | 43 | 1016.6 |
| 20260902165114 | 87 | 265 | 9.0 | 15.0 | 0.00 | 0.00 | 0.00 | 42 | 1016.6 |
| 20260902164814 | 87 | 261 | 9.0 | 15.0 | 0.00 | 0.00 | 0.00 | 44 | 1016.7 |
| 20260902164509 | 87 | 267 | 9.0 | 15.0 | 0.00 | 0.00 | 0.00 | 43 | 1016.7 |
| 20260902164210 | 87 | 263 | 10.0 | 15.0 | 0.00 | 0.00 | 0.00 | 45 | 1016.7 |
| 20260902163900 | 86 | 267 | 10.0 | 15.0 | 0.00 | 0.00 | 0.00 | 44 | 1016.7 |
| 20260902163553 | 86 | 272 | 10.0 | 15.0 | 0.00 | 0.00 | 0.00 | 44 | 1016.8 |
| 20260902163254 | 87 | 264 | 9.0 | 15.0 | 0.00 | 0.00 | 0.00 | 44 | 1016.8 |
| 20260902162949 | 86 | 258 | 9.0 | 15.0 | 0.00 | 0.00 | 0.00 | 44 | 1016.7 |
| 20260902162228 | 85 | 261 | 10.0 | 17.0 | 0.00 | 0.00 | 0.00 | 45 | 1016.7 |
| 20260902160155 | 85 | 246 | 10.0 | 14.0 | 0.00 | 0.00 | 0.00 | 47 | 1016.7 |
| 20260902155846 | 84 | 252 | 10.0 | 15.0 | 0.00 | 0.00 | 0.00 | 46 | 1016.7 |
| 20260902155548 | 84 | 256 | 10.0 | 15.0 | 0.00 | 0.00 | 0.00 | 48 | 1016.7 |
| 20260902155237 | 84 | 267 | 10.0 | 15.0 | 0.00 | 0.00 | 0.00 | 48 | 1016.7 |
| 20260902154924 | 84 | 258 | 10.0 | 15.0 | 0.00 | 0.00 | 0.00 | 47 | 1016.8 |
| 20260902154156 | 83 | 267 | 10.0 | 15.0 | 0.00 | 0.00 | 0.00 | 48 | 1016.7 |
| 20260902153854 | 83 | 255 | 9.0 | 15.0 | 0.00 | 0.00 | 0.00 | 48 | 1016.7 |
| 20260902153122 | 82 | 257 | 9.0 | 14.0 | 0.00 | 0.00 | 0.00 | 50 | 1016.5 |
| 20260902152825 | 82 | 251 | 9.0 | 14.0 | 0.00 | 0.00 | 0.00 | 50 | 1016.5 |
| 20260902152529 | 82 | 248 | 9.0 | 14.0 | 0.00 | 0.00 | 0.00 | 51 | 1016.5 |
| 20260902152220 | 82 | 248 | 9.0 | 14.0 | 0.00 | 0.00 | 0.00 | 51 | 1016.5 |
| 20260902151911 | 81 | 244 | 10.0 | 14.0 | 0.00 | 0.00 | 0.00 | 51 | 1016.6 |
| 20260902151613 | 81 | 242 | 10.0 | 14.0 | 0.00 | 0.00 | 0.00 | 52 | 1016.5 |
| 20260902151315 | 81 | 246 | 9.0 | 14.0 | 0.00 | 0.00 | 0.00 | 52 | 1016.6 |
| 20260902151006 | 81 | 246 | 9.0 | 14.0 | 0.00 | 0.00 | 0.00 | 53 | 1016.5 |
| 20260902150234 | 80 | 255 | 9.0 | 14.0 | 0.00 | 0.00 | 0.00 | 55 | 1016.5 |
| 20260902145928 | 80 | 249 | 9.0 | 14.0 | 0.00 | 0.00 | 0.00 | 54 | 1016.5 |
| 20260902145629 | 79 | 249 | 9.0 | 14.0 | 0.00 | 0.00 | 0.00 | 55 | 1016.5 |
| 20260902145315 | 79 | 244 | 8.0 | 13.0 | 0.00 | 0.00 | 0.00 | 58 | 1016.5 |
| 20260902144557 | 78 | 223 | 8.0 | 13.0 | 0.00 | 0.00 | 0.00 | 61 | 1016.5 |
| 20260902144300 | 77 | 222 | 8.0 | 13.0 | 0.00 | 0.00 | 0.00 | 64 | 1016.7 |
| 20260902143529 | 76 | 224 | 8.0 | 13.0 | 0.00 | 0.00 | 0.00 | 65 | 1016.8 |
| 20260902143222 | 76 | 224 | 8.0 | 13.0 | 0.00 | 0.00 | 0.00 | 66 | 1016.8 |
| 20260902142911 | 75 | 224 | 8.0 | 13.0 | 0.00 | 0.00 | 0.00 | 66 | 1016.8 |
| 20260902142608 | 75 | 217 | 8.0 | 12.0 | 0.00 | 0.00 | 0.00 | 67 | 1016.8 |
| 20260902142307 | 75 | 217 | 8.0 | 12.0 | 0.00 | 0.00 | 0.00 | 67 | 1016.9 |
| 20260902142007 | 74 | 217 | 8.0 | 12.0 | 0.00 | 0.00 | 0.00 | 68 | 1016.8 |
| 20260902141656 | 74 | 216 | 8.0 | 11.0 | 0.00 | 0.00 | 0.00 | 69 | 1016.8 |
| 20260902141354 | 73 | 216 | 8.0 | 11.0 | 0.00 | 0.00 | 0.00 | 70 | 1016.8 |
| 20260902141043 | 73 | 216 | 8.0 | 11.0 | 0.00 | 0.00 | 0.00 | 71 | 1016.7 |
| 20260902140737 | 72 | 215 | 7.0 | 13.0 | 0.00 | 0.00 | 0.00 | 72 | 1016.8 |
| 20260902140438 | 72 | 215 | 8.0 | 13.0 | 0.00 | 0.00 | 0.00 | 73 | 1016.8 |
| 20260902140128 | 72 | 215 | 8.0 | 13.0 | 0.00 | 0.00 | 0.00 | 73 | 1016.8 |
| 20260902135405 | 71 | 211 | 8.0 | 13.0 | 0.00 | 0.00 | 0.00 | 75 | 1016.9 |
| 20260902135053 | 70 | 211 | 8.0 | 13.0 | 0.00 | 0.00 | 0.00 | 75 | 1016.8 |
| 20260902134739 | 70 | 199 | 7.0 | 11.0 | 0.00 | 0.00 | 0.00 | 77 | 1016.8 |
| 20260902134428 | 70 | 194 | 7.0 | 10.0 | 0.00 | 0.00 | 0.00 | 78 | 1016.8 |
| 20260902134132 | 69 | 193 | 7.0 | 10.0 | 0.00 | 0.00 | 0.00 | 79 | 1016.8 |
| 20260902133407 | 68 | 192 | 6.0 | 9.0 | 0.00 | 0.00 | 0.00 | 81 | 1016.8 |
| 20260902133100 | 68 | 192 | 6.0 | 9.0 | 0.00 | 0.00 | 0.00 | 81 | 1016.8 |
| 20260902132753 | 67 | 192 | 6.0 | 9.0 | 0.00 | 0.00 | 0.00 | 82 | 1016.9 |
| 20260902132449 | 67 | 192 | 6.0 | 9.0 | 0.00 | 0.00 | 0.00 | 82 | 1016.8 |
| 20260902132146 | 67 | 192 | 6.0 | 9.0 | 0.00 | 0.00 | 0.00 | 83 | 1016.9 |
| 20260902131833 | 67 | 192 | 6.0 | 9.0 | 0.00 | 0.00 | 0.00 | 83 | 1016.9 |
| 20260902131102 | 65 | 192 | 5.0 | 8.0 | 0.00 | 0.00 | 0.00 | 85 | 1016.9 |
| 20260902130751 | 65 | 192 | 5.0 | 8.0 | 0.00 | 0.00 | 0.00 | 86 | 1016.9 |
| 20260902130441 | 64 | 192 | 4.0 | 7.0 | 0.00 | 0.00 | 0.00 | 87 | 1016.9 |
| 20260902130129 | 64 | 192 | 4.0 | 6.0 | 0.00 | 0.00 | 0.00 | 87 | 1016.8 |
| 20260902125408 | 63 | 192 | 3.0 | 5.0 | 0.00 | 0.00 | 0.00 | 88 | 1016.7 |
| 20260902125103 | 63 | 192 | 4.0 | 5.0 | 0.00 | 0.00 | 0.00 | 88 | 1016.8 |
| 20260902124807 | 63 | 192 | 4.0 | 7.0 | 0.00 | 0.00 | 0.00 | 88 | 1016.7 |
| 20260902124510 | 62 | 192 | 4.0 | 7.0 | 0.00 | 0.00 | 0.00 | 88 | 1016.7 |
| 20260902124201 | 62 | 192 | 5.0 | 7.0 | 0.00 | 0.00 | 0.00 | 88 | 1016.7 |
| 20260902123015 | 62 | 192 | 6.0 | 9.0 | 0.00 | 0.00 | 0.00 | 88 | 1016.8 |
| 20260902122713 | 62 | 192 | 6.0 | 9.0 | 0.00 | 0.00 | 0.00 | 88 | 1016.8 |
| 20260902121938 | 62 | 192 | 7.0 | 8.0 | 0.00 | 0.00 | 0.00 | 87 | 1016.7 |
| 20260902121630 | 62 | 192 | 7.0 | 8.0 | 0.00 | 0.00 | 0.00 | 87 | 1016.6 |
| 20260902121325 | 62 | 191 | 6.0 | 8.0 | 0.00 | 0.00 | 0.00 | 87 | 1016.7 |
| 20260902121026 | 62 | 192 | 6.0 | 8.0 | 0.00 | 0.00 | 0.00 | 87 | 1016.7 |
| 20260902120714 | 62 | 192 | 5.0 | 7.0 | 0.00 | 0.00 | 0.00 | 86 | 1016.6 |
| 20260902120412 | 62 | 192 | 5.0 | 7.0 | 0.00 | 0.00 | 0.00 | 86 | 1016.5 |
| 20260902120108 | 63 | 192 | 5.0 | 7.0 | 0.00 | 0.00 | 0.00 | 86 | 1016.5 |
| 20260902115801 | 63 | 192 | 5.0 | 7.0 | 0.00 | 0.00 | 0.00 | 86 | 1016.6 |
| 20260902115457 | 63 | 192 | 5.0 | 7.0 | 0.00 | 0.00 | 0.00 | 86 | 1016.5 |
| 20260902115143 | 63 | 192 | 5.0 | 9.0 | 0.00 | 0.00 | 0.00 | 86 | 1016.6 |
| 20260902114834 | 63 | 192 | 6.0 | 9.0 | 0.00 | 0.00 | 0.00 | 86 | 1016.5 |
| 20260902114521 | 63 | 192 | 6.0 | 9.0 | 0.00 | 0.00 | 0.00 | 86 | 1016.6 |
| 20260902114213 | 63 | 192 | 7.0 | 9.0 | 0.00 | 0.00 | 0.00 | 87 | 1016.5 |
| 20260902113901 | 63 | 192 | 7.0 | 9.0 | 0.00 | 0.00 | 0.00 | 87 | 1016.4 |
| 20260902113557 | 63 | 192 | 6.0 | 9.0 | 0.00 | 0.00 | 0.00 | 87 | 1016.4 |
| 20260902112359 | 63 | 192 | 6.0 | 8.0 | 0.00 | 0.00 | 0.00 | 87 | 1016.5 |
| 20260902111626 | 62 | 192 | 5.0 | 7.0 | 0.00 | 0.00 | 0.00 | 87 | 1016.6 |
| 20260902111314 | 62 | 192 | 4.0 | 6.0 | 0.00 | 0.00 | 0.00 | 86 | 1016.7 |
| 20260902111005 | 63 | 192 | 4.0 | 6.0 | 0.00 | 0.00 | 0.00 | 86 | 1016.7 |
| 20260902110701 | 63 | 192 | 4.0 | 6.0 | 0.00 | 0.00 | 0.00 | 87 | 1016.6 |
| 20260902105950 | 63 | 192 | 5.0 | 6.0 | 0.00 | 0.00 | 0.00 | 87 | 1016.7 |
| 20260902105642 | 63 | 192 | 5.0 | 6.0 | 0.00 | 0.00 | 0.00 | 87 | 1016.7 |
| 20260902105337 | 63 | 192 | 5.0 | 6.0 | 0.00 | 0.00 | 0.00 | 87 | 1016.6 |
| 20260902105024 | 63 | 192 | 4.0 | 6.0 | 0.00 | 0.00 | 0.00 | 87 | 1016.6 |
| 20260902104716 | 63 | 192 | 4.0 | 6.0 | 0.00 | 0.00 | 0.00 | 87 | 1016.7 |
| 20260902104404 | 63 | 192 | 4.0 | 6.0 | 0.00 | 0.00 | 0.00 | 87 | 1016.7 |
| 20260902104053 | 62 | 192 | 4.0 | 6.0 | 0.00 | 0.00 | 0.00 | 87 | 1016.7 |
| 20260902103755 | 62 | 192 | 4.0 | 6.0 | 0.00 | 0.00 | 0.00 | 87 | 1016.8 |
| 20260902103028 | 62 | 192 | 4.0 | 6.0 | 0.00 | 0.00 | 0.00 | 87 | 1016.8 |
| 20260902102716 | 62 | 192 | 5.0 | 6.0 | 0.00 | 0.00 | 0.00 | 86 | 1016.7 |
| 20260902102410 | 62 | 192 | 5.0 | 6.0 | 0.00 | 0.00 | 0.00 | 86 | 1016.8 |
| 20260902102111 | 62 | 192 | 5.0 | 6.0 | 0.00 | 0.00 | 0.00 | 86 | 1016.8 |
| 20260902101758 | 63 | 192 | 4.0 | 6.0 | 0.00 | 0.00 | 0.00 | 85 | 1016.8 |
| 20260902101458 | 63 | 192 | 3.0 | 6.0 | 0.00 | 0.00 | 0.00 | 85 | 1016.9 |
| 20260902101152 | 63 | 192 | 3.0 | 5.0 | 0.00 | 0.00 | 0.00 | 85 | 1016.9 |
| 20260902100007 | 63 | 192 | 4.0 | 6.0 | 0.00 | 0.00 | 0.00 | 85 | 1016.8 |
| 20260902095233 | 63 | 192 | 5.0 | 6.0 | 0.00 | 0.00 | 0.00 | 85 | 1016.9 |
| 20260902094458 | 64 | 192 | 6.0 | 8.0 | 0.00 | 0.00 | 0.00 | 85 | 1016.8 |
| 20260902094151 | 64 | 192 | 6.0 | 8.0 | 0.00 | 0.00 | 0.00 | 85 | 1016.8 |
| 20260902093843 | 64 | 192 | 6.0 | 8.0 | 0.00 | 0.00 | 0.00 | 85 | 1016.7 |
| 20260902093531 | 64 | 192 | 6.0 | 8.0 | 0.00 | 0.00 | 0.00 | 85 | 1016.8 |
| 20260902093233 | 64 | 192 | 6.0 | 8.0 | 0.00 | 0.00 | 0.00 | 85 | 1016.7 |
| 20260902092928 | 64 | 192 | 6.0 | 8.0 | 0.00 | 0.00 | 0.00 | 86 | 1016.7 |
| 20260902092624 | 63 | 192 | 6.0 | 8.0 | 0.00 | 0.00 | 0.00 | 86 | 1016.8 |
| 20260902092310 | 63 | 192 | 6.0 | 8.0 | 0.00 | 0.00 | 0.00 | 86 | 1016.9 |
| 20260902092005 | 63 | 192 | 5.0 | 7.0 | 0.00 | 0.00 | 0.00 | 86 | 1016.8 |
| 20260902091652 | 63 | 192 | 5.0 | 7.0 | 0.00 | 0.00 | 0.00 | 86 | 1016.8 |
| 20260902091354 | 63 | 192 | 5.0 | 7.0 | 0.00 | 0.00 | 0.00 | 86 | 1016.7 |
| 20260902091046 | 63 | 192 | 5.0 | 7.0 | 0.00 | 0.00 | 0.00 | 85 | 1016.8 |
| 20260902090735 | 63 | 192 | 5.0 | 7.0 | 0.00 | 0.00 | 0.00 | 85 | 1016.9 |
| 20260902090422 | 63 | 192 | 5.0 | 7.0 | 0.00 | 0.00 | 0.00 | 85 | 1016.9 |
| 20260902085650 | 63 | 192 | 4.0 | 5.0 | 0.00 | 0.00 | 0.00 | 84 | 1017.0 |
| 20260902085353 | 63 | 192 | 4.0 | 5.0 | 0.00 | 0.00 | 0.00 | 84 | 1017.0 |
| 20260902085054 | 63 | 192 | 4.0 | 5.0 | 0.00 | 0.00 | 0.00 | 83 | 1017.1 |
| 20260902084753 | 63 | 192 | 4.0 | 5.0 | 0.00 | 0.00 | 0.00 | 83 | 1016.9 |
| 20260902084448 | 64 | 192 | 4.0 | 5.0 | 0.00 | 0.00 | 0.00 | 83 | 1017.0 |
| 20260902084135 | 64 | 192 | 4.0 | 5.0 | 0.00 | 0.00 | 0.00 | 83 | 1016.9 |
| 20260902083833 | 64 | 192 | 4.0 | 5.0 | 0.00 | 0.00 | 0.00 | 83 | 1016.9 |
| 20260902083525 | 64 | 192 | 4.0 | 5.0 | 0.00 | 0.00 | 0.00 | 83 | 1016.9 |
| 20260902083217 | 64 | 192 | 3.0 | 5.0 | 0.00 | 0.00 | 0.00 | 82 | 1016.8 |
| 20260902082905 | 64 | 192 | 3.0 | 5.0 | 0.00 | 0.00 | 0.00 | 82 | 1016.9 |
| 20260902082558 | 64 | 192 | 3.0 | 5.0 | 0.00 | 0.00 | 0.00 | 82 | 1016.9 |
| 20260902082256 | 64 | 192 | 3.0 | 5.0 | 0.00 | 0.00 | 0.00 | 82 | 1016.9 |
| 20260902081958 | 64 | 192 | 3.0 | 5.0 | 0.00 | 0.00 | 0.00 | 82 | 1016.9 |
| 20260902081657 | 64 | 192 | 3.0 | 4.0 | 0.00 | 0.00 | 0.00 | 81 | 1016.9 |
| 20260902081344 | 64 | 192 | 3.0 | 5.0 | 0.00 | 0.00 | 0.00 | 81 | 1016.8 |
| 20260902080634 | 65 | 192 | 3.0 | 5.0 | 0.00 | 0.00 | 0.00 | 81 | 1017.0 |
| 20260902080324 | 65 | 192 | 3.0 | 5.0 | 0.00 | 0.00 | 0.00 | 80 | 1017.0 |
| 20260902080016 | 65 | 192 | 3.0 | 5.0 | 0.00 | 0.00 | 0.00 | 80 | 1017.1 |